Starlink 4073

operational
NORAD ID: 52672 Int'l Des: 2022-053 Owner: SPXS Country: US Constellation: starlink
LEOCIRCULAR

Über Starlink 4073

Beschreibung wird geladen...

Live-Position

3D-Globus wird geladen...

Nächste Überflüge

Höhenverlauf

Altitude vs Time

uPlot chart will show altitude changes over time

Zweizeiliger Elementsatz

1 52672U 22053S 25310.38164606 .00001805 00000-0 13146-3 0 9991
2 52672 53.2173 347.6706 0001353 89.2301 270.8846 15.08848114192426
Epoch: 6. Nov. 2025 • Age: 21 hours

Aktueller Status

Höhe 541.0 km
Geschwindigkeit 7.59 km/s
Subsatellitenpunkt -2.45°S, 151.9°W
Startdatum 18. Mai 2022
Alter 3.4 years
Typ internet

Technische Details

Klassifizierung Payload
Masse 297.00 kg
Trockenmasse 275.00 kg
Gesamtmasse 297.00 kg
Länge 0.20 m
Durchmesser 2.80 m
Spannweite 9.00 m
Form Box + pan
Hersteller SPXS
Bus-Typ Starlink
Phasenstatus In Orbit
Besitzer/Staat SPXS/US

Große Konstellationen

Loading constellations...